Location: Haulchin
(50.3172°N, 3.4360°E)
Time: 05:13:29
(UTC+00:00)

Okean 2 Rocket - Pass Details

Date: 23 May 2024
Orbit: 614 x 637 km, 82.5° (Epoch: 19 June)

Event Time Altitude Azimuth Distance (km) Brightness Sun altitude
Rises 02:46:42 0° 348° (NNW) 2,898 7.0 -8.3°
Reaches altitude 10° 02:48:56 10° 348° (NNW) 1,989 6.2 -8.0°
Maximum altitude 02:53:20 79° 263° (W) 636 3.0 -7.6°
Drops below altitude 10° 02:57:43 10° 176° (S) 1,981 5.3 -7.1°
Sets 02:59:56 0° 175° (S) 2,885 6.1 -6.8°
